Simultaneous Nadir Overpasses (SNOs) Predictions

Prediction of SNOs between AQUA and METOP-A Satellite Orbit:

Table of predicted SNOs for the next 14.0 days since TLE Epoch: 11/2/2012
Index Date (AQUA) Time (AQUA) AQUA Lat,Lon Date (METOP-A) Time (METOP-A) METOP-A Lat,Lon Distance(km) Time Diff (sec)
1 11/03/2012 04:47:36 -73.78, -77.66 11/03/2012 04:46:50 -73.78, -77.73 2.14 46
2 11/03/2012 05:37:05 73.85, 89.81 11/03/2012 05:37:28 73.85, 89.77 1.59 23
3 11/06/2012 00:21:45 -73.82, -11.29 11/06/2012 00:21:09 -73.81, -11.24 2.40 36
4 11/06/2012 01:11:13 73.86, 156.27 11/06/2012 01:11:47 73.87, 156.24 1.93 34
5 11/08/2012 19:55:51 -73.81, 55.20 11/08/2012 19:55:28 -73.82, 55.21 1.02 23
6 11/08/2012 20:45:20 73.90,-137.36 11/08/2012 20:46:06 73.88,-137.31 2.68 46
7 11/11/2012 14:40:22 73.47, -45.21 11/11/2012 14:39:12 73.41, -46.66 46.39 70
8 11/11/2012 15:29:55 -73.85, 121.61 11/11/2012 15:29:46 -73.83, 121.63 3.00 9
9 11/11/2012 16:19:23 73.89, -70.85 11/11/2012 16:20:24 73.88, -70.89 1.72 61
10 11/14/2012 10:14:30 73.76, 20.65 11/14/2012 10:13:23 73.80, 20.65 3.79 67
11 11/14/2012 11:03:57 -73.83,-171.86 11/14/2012 11:04:04 -73.86,-171.87 3.52 7




NCC Satellite Simultaneous Nadir Overpasses (SNOs) Prediction Service
